Regional Weather Roundup
Issued by NWS

Home | Current Version | Previous Version | Graphics & Text | Print | Product List | Glossary On
Versions: 1 2 3 4 5 6 7 8 9 10 11 12 13 14 15 16 17 18 19 20 21 22 23 24 25 26 27 28 29 30 31 32 33 34 35 36 37 38 39 40 41 42 43 44 45 46 47 48 49 50
000
ASUS43 KOAX 281502
RWRNE

WEATHER ROUNDUP FOR NEBRASKA
NATIONAL WEATHER SERVICE OMAHA NE
1000 AM CDT SUN AUG 28 2016

NOTES: SATELLITE DATA IS BEING USED TO AUGMENT CLOUD COVER ABOVE
       12000 FEET.
       "FAIR" INDICATES FEW OR NO CLOUDS BELOW 12,000 FEET WITH NO
       SIGNIFICANT WEATHER AND/OR OBSTRUCTIONS TO VISIBILITY.

  * THESE STATIONS DO NOT REPORT WEATHER SUCH AS RAIN...SNOW OR FOG.

NEZ001>004-019>022-054>056-281600-
NEBRASKA PANHANDLE

CITY           SKY/WX    TMP DP  RH WIND       PRES   REMARKS
SCOTTSBLUFF    SUNNY     67  57  70 CALM      30.10R
ALLIANCE       SUNNY     70  59  68 S9        30.08R
CHADRON        SUNNY     77  44  30 SW9       30.02S
KIMBALL        SUNNY     69  47  46 SW5       30.16S
SIDNEY         SUNNY     70  57  63 SW9       30.14R
$$

NEZ057>060-069>072-079>082-281600-
SOUTHWEST NEBRASKA

CITY           SKY/WX    TMP DP  RH WIND       PRES   REMARKS
NORTH PLATTE   SUNNY     74  64  71 S10       30.09R
IMPERIAL       SUNNY     71  59  65 SW9       30.10S
LEXINGTON      MOSUNNY   73  64  74 S8        30.10R
MCCOOK         PTSUNNY   72  64  76 CALM      30.10R
OGALLALA       SUNNY     72  62  70 CALM      30.09S
$$

NEZ005>010-023>029-035>040-094-281600-
NORTH CENTRAL NEBRASKA

CITY           SKY/WX    TMP DP  RH WIND       PRES   REMARKS
AINSWORTH      SUNNY     75  67  75 S9        30.05S
BROKEN BOW     MOSUNNY   74  66  76 S10       30.08R
O`NEILL        SUNNY     78  66  65 S15       30.05S
ORD            MOSUNNY   76  66  71 S14       30.07R
THEDFORD       SUNNY     75  64  70 SW7       30.07S
$$

NEZ041-046>049-061>064-073>077-083>087-281600-
SOUTH CENTRAL NEBRASKA

CITY           SKY/WX    TMP DP  RH WIND       PRES   REMARKS
GRAND ISLAND   PTSUNNY   79  67  66 S9        30.10R
AURORA         CLOUDY    77  71  83 S6        30.09F
HASTINGS       MOSUNNY   76  68  76 S8        30.10S
HEBRON         MOSUNNY   78  71  77 SW6       30.10R
HOLDREGE       CLOUDY    71  65  83 S7        30.10S
KEARNEY *      PTSUNNY   73  66  78 S5        30.09R
YORK           MOSUNNY   77  72  83 S9        30.10S
$$

NEZ011>018-030>034-042>045-281600-
NORTHEAST NEBRASKA

CITY           SKY/WX    TMP DP  RH WIND       PRES   REMARKS
NORFOLK        SUNNY     77  68  73 S13       30.08R
ALBION         MOSUNNY   74  68  81 S7        30.09S
BLAIR          SUNNY     78  70  76 S7        30.10S
FREMONT        SUNNY     78  71  79 S7        30.10S
TEKAMAH        SUNNY     75  70  84 S6        30.09S
WAYNE          SUNNY     76  72  87 S10       30.09S
$$

NEZ050>053-065>068-078-088>093-281600-
SOUTHEAST NEBRASKA

CITY           SKY/WX    TMP DP  RH WIND       PRES   REMARKS
LINCOLN        PTSUNNY   78  70  76 S6        30.10S
OMAHA EPPLEY   PTSUNNY   78  69  73 S9        30.10S
BEATRICE       SUNNY     78  70  77 S6        30.10S
FALLS CITY     SUNNY     79  73  82 SE5       30.11R
NEBRASKA CITY  SUNNY     76  73  88 SE5       30.11S
PLATTSMOUTH    MOSUNNY   76  72  86 SE5       30.11S
$$

NEZ044-045-051>053-067-281600-
OMAHA AREA

CITY           SKY/WX    TMP DP  RH WIND       PRES   REMARKS
OMAHA EPPLEY   PTSUNNY   78  69  73 S9        30.10S
BLAIR          SUNNY     78  70  76 S7        30.10S
FREMONT        SUNNY     78  71  79 S7        30.10S
MILLARD        SUNNY     78  71  81 SE5       30.10R
OFFUTT AFB     MOSUNNY   77  73  85 E7        30.10R
PLATTSMOUTH    MOSUNNY   76  72  86 SE5       30.11S
WAHOO          FAIR      77  72  85 S7        30.10R
$$




USA.gov is the U.S. government's official web portal to all federal, state and local government web resources and services.